Theta_e
346 343 346 345 343 336 339 336 335 339 341 339 339 339 339 338 337 339 338 334 335 337 338 340 340 341 341 340 341 340 341 340 340 337 336 335 335 335 335 334 332 331 331
343 341 341 343 342 341 340 334 337 339 338 339 339 337 336 336 337 337 335 333 333 336 336 337 338 336 337 338 340 341 340 341 339 337 336 335 334 334 333 332 331 331 331
338 341 343 345 343 342 342 339 337 338 338 337 336 337 336 336 336 336 336 334 332 332 331 333 337 337 337 337 337 338 339 339 339 338 336 333 332 332 332 331 331 330 329
342 346 344 345 343 342 341 340 338 338 338 336 336 336 336 336 334 334 333 334 332 324 323 324 329 333 334 334 335 333 336 336 335 335 335 333 332 331 330 330 329 328 327
343 345 346 345 343 343 342 341 340 340 338 336 336 336 334 333 329 334 333 331 332 325 323 323 322 323 328 328 332 333 332 334 334 334 333 332 331 329 328 327 326 325 324
346 343 345 345 343 343 341 342 340 339 335 337 338 337 333 327 326 330 329 327 327 327 326 326 327 325 323 324 330 333 333 330 329 329 328 327 326 325 324 324 323 323 323
343 345 344 342 344 344 343 342 342 339 336 337 336 336 332 327 327 326 328 328 327 327 328 327 328 328 325 322 322 322 325 327 327 328 329 328 328 326 325 325 325 326 324
345 344 344 341 341 341 343 343 342 340 338 336 336 336 333 327 327 326 328 329 327 327 325 323 323 323 323 320 318 317 317 319 318 323 320 319 313 317 322 319 322 322 321
344 343 343 340 341 340 341 343 342 341 339 336 336 335 334 327 327 327 330 331 329 328 326 324 323 322 322 322 320 318 316 316 313 312 311 310 310 307 308 316 318 316 317
342 342 337 335 339 343 344 343 342 341 340 339 335 335 334 328 327 327 329 330 329 327 324 323 323 322 321 322 324 323 322 320 320 316 316 314 314 313 313 305 313 313 314
338 335 332 335 340 338 338 339 340 341 341 339 336 335 334 330 327 327 328 330 328 325 326 326 323 321 319 317 318 323 324 313 318 319 319 315 315 314 313 311 305 307 312
336 332 332 336 337 337 335 335 338 339 341 339 336 335 333 330 329 327 327 327 326 327 326 325 323 321 316 314 313 309 310 315 316 317 317 315 313 312 312 310 309 309 309
336 338 339 336 336 336 335 339 339 340 341 339 336 334 332 331 329 329 328 327 326 326 326 325 324 320 314 313 310 311 313 314 313 314 313 312 312 311 310 310 309 310 309
337 334 334 334 335 335 336 336 338 338 338 339 336 333 331 330 329 329 327 326 326 326 326 324 322 316 315 315 313 312 312 311 312 312 312 311 310 310 310 310 310 309 309
338 338 338 337 336 336 335 334 334 337 336 337 335 334 332 330 329 327 328 327 327 326 325 323 319 313 316 317 314 313 312 312 311 311 311 311 310 310 310 309 309 309 309
335 335 334 334 334 334 334 334 333 334 334 335 333 332 331 330 330 328 326 326 324 323 321 320 315 318 319 318 315 313 312 311 311 311 311 310 310 310 309 310 309 309 309
334 332 332 330 331 330 330 333 333 334 334 332 332 332 331 330 328 328 326 325 324 323 320 316 318 319 318 314 312 312 312 312 309 311 311 310 310 310 310 310 309 309 309
328 330 330 331 330 328 328 330 331 331 332 332 331 331 330 329 328 326 325 323 323 322 319 318 318 319 316 313 312 312 312 312 312 311 311 311 310 310 310 310 309 309 309
331 329 329 329 328 327 327 327 330 329 330 330 330 330 329 328 326 324 323 321 321 321 317 318 318 318 315 312 313 313 313 312 312 311 309 311 310 310 310 310 310 310 309
330 329 328 327 326 327 327 328 326 328 329 328 327 324 325 325 323 322 321 321 319 317 317 317 318 316 313 313 314 313 313 312 312 312 312 312 311 310 310 309 309 308 309
330 329 329 327 326 329 329 328 329 329 329 328 326 321 317 319 317 318 319 320 318 318 318 317 315 314 313 314 314 314 313 312 312 312 311 311 311 311 310 309 308 308 308
329 328 328 327 326 327 327 326 327 327 327 326 320 317 316 308 315 315 315 314 314 314 314 314 314 314 313 314 314 313 313 312 312 311 311 311 311 309 309 309 308 308 308
328 327 327 326 323 322 319 318 316 316 316 316 317 317 316 313 315 315 315 314 314 314 314 313 313 314 313 312 313 313 313 312 312 311 311 310 309 309 309 308 307 306 304
327 327 327 325 322 319 318 316 315 316 316 317 317 316 316 314 314 316 315 315 314 314 314 314 313 313 312 312 312 312 312 311 310 310 309 307 306 306 306 304 302 301 298
327 327 327 325 321 319 318 317 316 316 318 318 318 316 314 313 315 315 316 316 315 315 315 314 314 313 312 311 311 311 311 311 308 307 307 306 306 304 301 298 297 298 298
328 327 326 326 323 320 318 317 316 315 317 318 318 318 318 317 318 318 317 316 315 315 315 313 313 311 312 312 311 311 310 309 307 307 306 304 299 294 297 297 298 298 297
Wind_Speed
9 10 9 6 4 9 7 5 3 7 7 9 9 9 9 12 11 9 10 8 9 9 10 9 8 8 11 8 6 5 7 9 9 14 10 11 11 5 4 2 1 1 2
8 10 11 7 7 9 7 5 5 7 7 7 7 7 6 6 9 7 7 9 11 14 12 10 14 7 7 8 10 8 7 6 8 13 15 14 11 8 6 2 1 2 2
13 10 12 9 7 8 8 7 5 8 6 5 6 6 5 7 8 8 10 12 11 12 11 11 12 14 17 12 9 8 7 5 5 8 14 12 9 7 4 2 1 4 2
15 11 11 11 9 8 6 5 6 7 5 4 6 6 7 6 7 8 8 10 8 14 15 15 14 14 15 14 12 12 8 6 7 7 9 9 7 6 3 3 2 2 2
16 15 14 13 10 9 7 4 5 7 5 6 5 7 5 3 5 9 5 8 7 11 13 14 15 13 10 10 11 11 12 8 9 9 8 7 5 5 4 4 4 3 3
13 15 15 16 13 11 8 9 7 6 5 7 6 4 4 2 5 7 5 6 8 10 13 13 12 12 12 12 11 9 9 10 9 10 9 7 5 6 4 3 3 1 2
17 14 16 15 16 14 11 11 11 10 7 8 8 6 2 2 3 4 7 6 7 8 10 11 5 9 8 9 8 7 7 8 8 8 9 7 6 2 1 0 2 3 3
18 20 19 15 17 15 15 11 14 11 10 8 9 8 4 4 4 5 6 5 6 5 4 6 6 6 5 8 8 8 8 7 7 5 3 3 2 3 4 3 1 1 2
15 16 15 11 13 18 17 16 13 14 12 10 11 11 9 6 6 7 7 5 3 5 2 3 4 4 5 5 6 7 7 7 7 6 6 5 7 2 4 3 3 6 12
12 15 12 15 15 17 17 15 14 15 11 11 12 11 11 8 8 7 10 8 4 2 4 3 2 2 3 4 5 5 4 5 5 8 12 13 11 10 10 2 4 3 7
15 13 14 14 12 11 9 15 13 14 12 12 13 14 13 10 10 10 13 13 8 3 2 2 2 2 3 4 3 4 5 1 6 3 4 8 8 5 9 13 5 2 2
18 17 14 11 14 15 12 12 10 11 16 15 17 17 14 13 11 13 13 13 11 11 11 9 4 4 4 3 0 1 6 8 3 2 0 3 3 4 9 10 9 11 8
17 19 19 16 14 16 15 11 13 17 18 18 21 14 13 15 15 13 14 13 13 13 11 8 6 7 5 3 4 9 8 4 3 2 2 2 4 6 6 5 8 8 9
18 20 20 20 20 20 19 18 18 19 20 21 22 15 17 12 14 14 14 13 12 11 10 9 9 8 5 2 5 4 1 4 4 2 2 1 2 3 3 6 5 5 6
11 14 15 16 16 16 17 20 20 19 19 23 22 20 20 18 16 11 13 12 13 12 11 11 11 10 7 6 6 3 2 3 2 1 1 0 1 2 2 3 4 5 5
8 10 11 13 12 14 16 16 17 19 20 24 25 20 20 17 17 16 12 11 11 12 11 11 12 10 7 9 11 6 5 7 4 2 1 0 1 3 5 2 4 3 4
8 9 9 11 14 14 12 14 14 16 20 21 20 21 20 21 19 18 16 16 14 14 15 11 9 9 11 9 8 7 11 8 3 4 2 1 1 2 4 3 5 4 3
10 9 9 10 14 17 15 14 15 17 18 21 25 25 23 21 19 18 16 15 19 19 19 17 17 16 12 11 10 10 8 5 5 5 4 4 3 4 4 5 7 7 8
13 11 9 10 13 16 14 12 15 12 16 19 20 25 23 22 21 20 21 18 19 19 21 15 10 17 14 12 12 12 10 8 8 7 9 7 5 5 7 8 9 11 10
18 17 14 17 14 16 16 14 14 17 17 19 17 17 24 24 21 20 18 20 20 18 10 11 14 13 12 14 15 12 11 10 8 6 5 7 9 8 8 9 13 15 18
13 17 17 15 14 17 17 17 19 22 23 24 17 13 9 18 17 16 17 19 21 17 15 19 16 16 15 17 16 13 12 12 13 12 10 8 9 10 11 13 15 16 18
15 16 17 19 12 20 17 19 21 20 17 18 15 16 12 11 13 12 9 10 13 11 14 15 14 15 15 17 17 16 15 14 11 11 12 12 15 14 15 16 17 18 17
18 17 15 19 16 19 15 19 14 15 14 15 19 19 16 15 17 14 18 15 16 15 14 13 15 12 6 15 14 16 16 13 14 16 18 20 21 15 16 19 20 19 18
19 18 16 20 17 19 13 14 16 12 16 18 23 22 15 17 13 12 15 16 17 16 17 17 19 16 17 10 13 16 20 21 23 23 21 21 20 19 17 17 19 19 16
15 17 18 19 23 18 17 15 19 18 16 11 9 19 19 16 10 16 16 15 17 19 20 21 21 22 20 21 23 20 21 21 18 17 18 20 22 22 20 19 14 13 15
15 15 16 17 22 23 23 22 23 25 20 22 19 17 16 17 18 17 12 13 15 19 19 18 17 15 16 19 22 22 25 24 21 20 22 24 22 16 12 13 15 17 15
Wind_Direction
208 161 134 145 150 122 123 117 97 88 70 52 57 53 42 43 55 39 11 45 58 62 61 57 60 52 72 84 98 136 164 180 199 172 178 177 177 182 185 175 156 116 87
168 149 147 188 153 133 126 107 99 101 90 95 82 71 55 71 83 53 17 56 66 63 58 64 64 69 91 80 100 108 138 170 189 171 176 180 186 185 176 138 116 105 105
163 164 159 167 160 147 148 138 108 89 85 68 91 92 86 74 77 82 43 43 54 63 63 71 76 74 66 62 64 91 102 129 141 170 177 179 172 157 161 134 176 112 79
159 171 174 170 190 162 171 133 114 107 97 74 94 94 77 64 83 67 85 83 48 68 69 71 74 71 78 68 55 60 90 97 105 133 156 159 160 149 149 138 152 134 130
171 187 179 197 193 190 160 145 145 115 144 111 80 79 93 241 84 97 64 94 78 73 75 72 71 69 76 69 84 66 67 89 108 118 134 140 142 143 137 135 131 135 30
170 191 199 210 207 192 189 175 184 171 152 118 109 127 230 62 119 124 112 93 89 80 66 61 64 74 71 83 93 92 81 76 95 103 105 94 87 67 64 73 91 172 331
195 204 216 216 201 207 203 185 197 197 190 164 162 205 281 152 133 138 117 109 101 110 128 122 110 88 77 78 86 94 111 118 115 124 132 130 135 146 62 83 265 266 285
221 220 225 228 212 215 212 211 200 218 211 200 186 210 248 174 160 158 138 120 124 94 103 119 109 117 86 90 92 99 96 96 95 130 131 136 127 183 192 156 92 31 291
226 226 223 242 235 220 218 215 204 222 218 217 200 217 237 199 180 170 139 137 161 178 141 110 118 115 102 73 80 86 92 84 85 75 60 58 52 53 159 195 218 311 303
220 222 231 241 255 249 225 218 218 218 220 233 201 216 231 206 197 185 160 168 216 213 150 175 130 127 132 128 93 34 30 45 20 57 60 48 44 40 23 302 162 103 34
208 247 225 270 296 259 270 238 230 219 228 230 216 216 227 225 208 199 183 178 218 173 116 214 170 172 157 165 176 194 221 120 95 26 10 45 17 75 359 349 20 329 175
209 203 226 257 266 259 257 242 247 239 234 233 217 218 223 223 216 214 214 228 207 197 217 244 229 219 199 186 252 94 127 110 93 61 25 155 186 284 313 340 23 30 35
225 238 247 257 255 251 261 258 247 240 237 248 222 224 221 235 224 228 226 224 219 220 241 234 230 218 199 143 53 129 121 90 32 176 160 346 327 323 15 16 353 350 348
246 252 259 266 267 263 267 254 249 250 250 237 218 205 215 234 239 227 226 226 225 230 222 224 224 205 198 158 123 103 42 220 166 156 132 297 319 317 332 339 2 354 347
270 270 273 272 273 269 262 263 262 251 248 240 218 200 220 216 230 246 230 227 225 227 228 223 210 194 175 163 150 140 236 81 122 181 169 195 296 332 266 327 345 342 345
282 283 282 282 276 272 263 260 253 248 241 233 208 212 216 212 224 240 248 229 231 214 219 207 197 189 213 231 197 199 226 180 176 166 170 172 96 311 338 43 338 334 339
259 250 259 278 282 285 271 246 244 239 228 217 213 215 214 227 228 226 241 232 227 218 209 194 200 228 217 208 208 217 190 201 197 162 194 276 317 311 334 336 308 283 315
317 286 250 250 271 281 290 250 242 236 229 233 224 220 225 230 233 240 235 233 223 218 209 200 224 217 205 207 206 209 228 252 199 187 221 247 263 297 290 297 298 287 297
303 313 279 270 259 266 268 257 241 240 234 233 237 229 233 229 228 227 242 233 214 215 209 215 230 206 198 205 206 204 195 196 199 247 243 227 236 279 285 290 305 331 318
290 294 289 274 277 258 258 251 255 240 232 230 228 242 231 221 230 232 225 208 194 208 212 212 224 207 203 209 218 222 231 225 234 242 235 223 266 273 274 294 308 307 292
282 283 279 280 262 251 240 241 237 234 231 215 225 236 254 225 220 217 216 211 199 198 231 220 220 215 211 216 217 224 224 240 257 253 246 254 248 272 295 296 292 293 298
279 283 271 269 261 256 261 252 253 251 229 217 214 223 236 232 185 205 214 211 201 217 222 215 214 225 220 219 229 213 227 243 246 260 270 252 258 278 281 283 288 289 287
279 281 275 253 250 253 269 242 247 240 236 229 219 203 224 219 201 219 215 214 210 212 214 211 209 219 237 213 211 212 216 243 248 250 252 259 273 268 268 273 276 279 282
265 266 269 249 245 250 263 243 233 242 232 237 224 208 210 208 206 251 226 220 213 214 210 218 224 224 231 248 241 240 237 247 260 257 264 276 280 279 276 266 262 266 274
255 258 259 253 237 238 244 242 230 240 238 205 232 184 185 193 242 218 243 217 205 209 215 220 235 240 247 249 241 240 249 261 252 261 272 279 283 283 271 270 271 267 264
246 248 252 254 240 237 241 244 246 244 232 239 230 222 223 251 238 257 219 216 228 248 251 264 263 246 235 232 238 244 248 248 256 270 281 286 283 268 260 258 254 258 262